User: anonymous   Login
Location: Cincinnati Observatory Center
(39.1389°N, 84.4225°W)
Time: 07:27:50
(UTC-05:00)
Language:

COSMOS 2428 - Orbit

View from above orbital plane
View from above orbital plane
View from above satellite
View from above satellite

Ground track
Ground track

The orbit data is extracted from the following two-line orbital elements,

1 31792U 07029A   16039.08019847  .00000137  00000-0  10000-3 0  9991
2 31792  70.9550  11.0372 0010767 303.0698 181.8435 14.12435871444169
Epoch (UTC): 08 February 2016 01:55:29
Eccentricity: 0.0010767
inclination: 70.9550°
perigee height: 843 km
apogee height: 859 km
right ascension of ascending node: 11.0372°
argument of perigee: 303.0698°
revolutions per day: 14.12435871
mean anomaly at epoch: 181.8435°
orbit number at epoch: 44416

The dashed part of the orbit path shows where the satellite is in the earth's shadow,  

DLR